[[{"header":{"parameterUnit":"m.s-1","parameterCategory":1,"la1":30.2992,"la2":30.254,"lo1":-89.0895,"lo2":-89.0443,"dy":0.0025,"dx":0.0025,"nx":19,"ny":19,"refTime":"2026-05-24T21:00:00:Z","depth":0,"parameterNumber":2,"parameterNumberName":"U-component_of_WINDS"},"data":[0,0,0,-3.7292,-3.7293,-3.731,-3.731,-3.7373,-3.7374,0,0,0,0,0,0,0,0,0,0,0,-3.7311,-3.7312,-3.7292,-3.7293,-3.731,-3.731,-3.7373,-3.7374,0,0,0,0,0,0,0,0,0,0,0,-3.731,-3.7312,-3.7314,-3.7293,-3.731,-3.731,-3.7372,-3.7345,0,0,0,0,0,0,0,0,0,0,-3.7321,-3.7363,-3.7312,-3.7314,-3.7293,-3.731,-3.731,-3.7343,-3.7347,-3.7382,0,-3.742,0,-3.7398,-3.7381,-3.7381,0,0,0,-3.7275,-3.736,-3.7342,-3.7314,-3.7294,-3.731,-3.7297,-3.7345,-3.7349,-3.7388,-3.7421,-3.7422,-3.7399,-3.7381,-3.7382,-3.7644,-3.7646,0,0,-3.7274,-3.7328,-3.734,-3.7346,-3.7346,-3.7297,-3.7298,-3.7346,-3.7387,-3.7421,-3.7423,-3.74,-3.7382,-3.7383,-3.7642,-3.7645,0,0,0,-3.7283,-3.7328,-3.7308,-3.7345,-3.7345,-3.7298,-3.7299,-3.7384,-3.7373,-3.7423,-3.7401,-3.7382,-3.7384,-3.764,-3.7643,-3.7796,0,0,0,-3.7282,-3.7333,-3.7308,-3.7342,-3.7345,-3.7365,-3.7337,-3.737,-3.7374,-3.7401,-3.7382,-3.7385,-3.7637,-3.7642,-3.7787,-3.7859,0,0,0,-3.7302,-3.7335,-3.7346,-3.7345,-3.7354,-3.7363,-3.7354,-3.7369,-3.7361,-3.7381,-3.7385,-3.7636,-3.7641,-3.7778,-3.7846,-3.7942,0,0,0,-3.7339,-3.7484,-3.7349,-3.7502,-3.7354,-3.7457,-3.7353,-3.7427,-3.7463,-3.7383,-3.7638,-3.7643,-3.7776,-3.7837,-3.7934,-3.8033,-3.8079,0,0,-3.7552,-3.7511,-3.7597,-3.7477,-3.7617,-3.745,-3.7613,-3.7595,-3.7549,-3.7615,-3.7621,-3.779,-3.7845,-3.7941,-3.8323,-3.8361,0,0,0,-3.7682,-3.7745,-3.777,-3.7805,-3.7794,-3.779,-3.7741,-3.7734,-3.7787,-3.7594,-3.785,-3.7881,-3.7935,-3.798,-3.8011,-3.8054,-3.7666,-3.7665,-3.7665,-3.8062,-3.7992,-3.8128,-3.8061,-3.8097,-3.8043,-3.8065,-3.8047,-3.7969,-3.8031,-3.8049,-3.829,-3.8344,-3.8368,-3.8413,-3.8097,-3.8098,-3.8098,-3.8098,-3.8366,-3.8442,-3.8332,-3.8424,-3.835,-3.8427,-3.8382,-3.8323,-3.8384,-3.827,-3.8315,-3.8195,-3.8411,-3.8446,-3.8109,-3.8107,-3.8106,-3.8105,-3.8104,-3.8605,-3.8629,-3.8617,-3.8658,-3.8699,-3.8625,-3.8688,-3.8619,-3.8555,-3.8599,-3.861,-3.8607,-3.8595,-3.8609,-3.861,-3.8611,-3.8612,-3.8612,-3.8613,-3.8858,-3.8839,-3.89,-3.8898,-3.891,-3.8917,-3.8864,-3.8875,-3.8868,-3.8813,-3.8813,-3.8728,-3.8445,-3.8375,-3.8625,-3.8623,-3.8622,-3.862,-3.862,-3.9191,-3.9103,-3.9198,-3.921,-3.92,-3.9244,-3.9154,-3.9181,-3.9179,-3.9212,-3.9117,-3.892,-3.8874,-3.8848,-3.8789,-3.9132,-3.9132,-3.9132,-3.9132,-3.9392,-3.9361,-3.9439,-3.9463,-3.9478,-3.9405,-3.9513,-3.9473,-3.9418,-3.9413,-3.9353,-3.927,-3.9247,-3.9214,-3.9181,-3.9125,-3.9545,-3.9546,-3.9546,-3.9591,-3.9558,-3.9663,-3.9606,-3.9593,-3.9584,-3.9683,-3.9714,-3.9634,-3.9561,-3.9407,-3.9389,-3.9254,-3.9213,-3.9137,-3.9087,-3.8982,0,0]},{"header":{"parameterUnit":"m.s-1","parameterCategory":1,"la1":30.2992,"la2":30.254,"lo1":-89.0895,"lo2":-89.0443,"dy":0.0025,"dx":0.0025,"nx":19,"ny":19,"refTime":"2026-05-24T21:00:00:Z","depth":0,"parameterNumber":3,"parameterNumberName":"V-component_of_WINDS"},"data":[0,0,0,0.2291,0.2292,0.2314,0.2314,0.2369,0.237,0,0,0,0,0,0,0,0,0,0,0,0.2298,0.2298,0.2291,0.2292,0.2314,0.2314,0.2369,0.237,0,0,0,0,0,0,0,0,0,0,0,0.2297,0.2298,0.2299,0.2292,0.2314,0.2314,0.2369,0.2343,0,0,0,0,0,0,0,0,0,0,0.2317,0.2335,0.2298,0.2299,0.2292,0.2314,0.2314,0.2342,0.2345,0.2369,0,0.2392,0,0.2382,0.2375,0.2375,0,0,0,0.2283,0.2333,0.2327,0.2299,0.2293,0.2314,0.2302,0.2343,0.2347,0.2374,0.2392,0.2394,0.2382,0.2375,0.2376,0.2542,0.2543,0,0,0.2282,0.2309,0.2324,0.233,0.2324,0.2301,0.2302,0.2345,0.2368,0.2392,0.2395,0.2383,0.2376,0.2376,0.2541,0.2542,0,0,0,0.2284,0.2309,0.2301,0.2328,0.233,0.2302,0.2303,0.2366,0.2361,0.2395,0.2384,0.2376,0.2377,0.2539,0.2541,0.2629,0,0,0,0.2283,0.231,0.2301,0.2318,0.2329,0.2348,0.2324,0.2358,0.2362,0.2384,0.2376,0.2378,0.2538,0.254,0.2624,0.2667,0,0,0,0.2292,0.2311,0.2318,0.232,0.233,0.2346,0.2343,0.2359,0.2356,0.2375,0.2378,0.2537,0.254,0.2619,0.2659,0.2722,0,0,0,0.231,0.2395,0.232,0.2411,0.233,0.2398,0.2343,0.2393,0.2419,0.2377,0.2538,0.2541,0.2617,0.2654,0.2717,0.2782,0.2811,0,0,0.2433,0.2411,0.2462,0.2396,0.2485,0.2393,0.2496,0.2495,0.2472,0.2521,0.2524,0.2625,0.2659,0.2721,0.2954,0.2978,0,0,0,0.2511,0.2549,0.2567,0.2592,0.2592,0.2598,0.2577,0.2577,0.2617,0.2501,0.2662,0.2681,0.2717,0.2747,0.2766,0.2797,0.2555,0.2555,0.2554,0.2728,0.2693,0.2778,0.2747,0.2772,0.2751,0.277,0.2767,0.2724,0.2763,0.2779,0.2924,0.2961,0.2975,0.3008,0.2807,0.2807,0.2807,0.2808,0.2909,0.296,0.29,0.2962,0.2926,0.2978,0.2962,0.2931,0.2977,0.2909,0.2939,0.2872,0.3001,0.3028,0.2814,0.2813,0.2812,0.2811,0.2811,0.3051,0.3069,0.3066,0.3101,0.3133,0.3098,0.3145,0.311,0.3077,0.3106,0.3122,0.312,0.3118,0.3115,0.3116,0.3116,0.3116,0.3117,0.3117,0.3201,0.3195,0.3237,0.3245,0.3258,0.3271,0.3251,0.3264,0.3271,0.3242,0.3242,0.3199,0.3018,0.2976,0.3125,0.3124,0.3123,0.3122,0.3121,0.3406,0.3354,0.342,0.3434,0.3441,0.3478,0.343,0.3461,0.3466,0.3492,0.3442,0.3312,0.3288,0.3272,0.3238,0.3445,0.3445,0.3445,0.3445,0.3529,0.3512,0.3573,0.3598,0.3617,0.3582,0.3663,0.3649,0.3627,0.3629,0.3593,0.3543,0.3528,0.3513,0.3492,0.3459,0.3719,0.3719,0.3719,0.3655,0.3639,0.3713,0.3688,0.3692,0.3698,0.3774,0.3807,0.3771,0.373,0.3632,0.362,0.3538,0.3512,0.3473,0.3441,0.3381,0,0]}]]